User: anonymous   Login
Location: Unspecified
(0.0000°N, 0.0000°E)
Time: 01:56:15
(UTC+00:00)
Language:

GEOEYE 1 - Orbit

View from above orbital plane
View from above orbital plane
View from above satellite
View from above satellite

Ground track
Ground track

The orbit data is extracted from the following two-line orbital elements,

1 33331U 08042A   16269.43922541  .00000223  00000-0  51616-4 0  9991
2 33331  98.1393 342.1884 0010226  23.3688 336.8001 14.64096618430361
Epoch (UTC): 25 September 2016 10:32:29
Eccentricity: 0.0010226
inclination: 98.1393°
perigee height: 673 km
apogee height: 687 km
right ascension of ascending node: 342.1884°
argument of perigee: 23.3688°
revolutions per day: 14.64096618
mean anomaly at epoch: 336.8001°
orbit number at epoch: 43036

The dashed part of the orbit path shows where the satellite is in the earth's shadow,  

DLR